sat.trackr.live / text

‹ back to catalog

STARLINK-2467

NORAD 48126 · 2021-027AL

PAYLOAD ACTIVE UNKNOWN

§ Identity

Operator
Country
US
Launch date
2021-04-07
Launch site
AFETR
Launch vehicle
Mass (kg)
RCS (m²)

Purposes: comms

External: N2YO · Heavens-Above · Gunter

§ Orbital elements

Epoch: 2026-09-10T00:03:52.644096Z

Period
94.01 min
Inclination
53.1607°
Eccentricity
0.0001219
Mean motion
15.31710595 rev/d
Perigee alt
469.9 km
Apogee alt
471.5 km
Semi-major
6,848.8 km
B*
1.2435e-5
RAAN
14.7261°
Arg perigee
70.7463°
Mean anomaly
289.3671°
Rev number
30,093

§ Raw data

STARLINK-24671 48126U 21027AL  26253.00269264  .00000021  00000+0  12435-4 0  99912 48126  53.1607  14.7261 0001219  70.7463 289.3671 15.31710595300934

JSON: /api/v1/satellites/48126 · /tle

For live sub-satellite position, see the globe view (requires WebGL).

§ Visibility from observer

Set your observer location to see the next 7 days of passes ≥ 10°. The values pass through the URL so the page stays shareable.

No JS? Fill the form by hand. The geolocation button needs JavaScript.